Location: Bosmont
(49.7318°N, 3.8587°E)
Time: 22:51:05
(UTC+00:00)

FO-29 - Visible Passes

Search period start: 29 November 2023 00:00
Search period end: 09 December 2023 00:00
Orbit: 800 x 1321 km, 98.6° (Epoch: 29 November)

Date Brightness Start Highest point End Pass type
(mag) Time Alt. Az. Time Alt. Az. Time Alt. Az.
29 Nov 11.6 02:23:08 10° NNE 02:26:04 26° NNE 02:26:04 26° NNE visible
29 Nov 10.8 04:08:29 10° N 04:12:32 32° NNW 04:12:32 32° NNW visible
29 Nov 11.5 05:56:09 10° NNW 05:58:29 12° NW 05:59:00 12° NW visible
30 Nov 12.2 01:28:42 10° NE 01:30:11 15° NE 01:30:11 15° NE visible
30 Nov 11.0 03:13:02 10° NNE 03:16:39 34° N 03:16:39 34° N visible
30 Nov 11.1 04:59:07 10° N 05:03:08 22° NW 05:03:08 22° NW visible
01 Dec 11.7 02:17:59 10° NNE 02:20:47 25° NNE 02:20:47 25° NNE visible
01 Dec 10.9 04:03:16 10° N 04:07:15 32° NNW 04:07:15 32° NNW visible
01 Dec 11.5 05:50:36 10° NNW 05:53:28 13° NW 05:53:43 13° NW visible
02 Dec 12.3 01:23:38 10° NE 01:24:54 14° NE 01:24:54 14° NE visible
02 Dec 11.1 03:07:51 10° NNE 03:11:22 33° NNE 03:11:22 33° NNE visible
02 Dec 11.1 04:53:52 10° N 04:57:50 23° NW 04:57:50 23° NW visible
03 Dec 11.8 02:12:51 10° NNE 02:15:30 23° NE 02:15:30 23° NE visible
03 Dec 11.0 03:58:04 10° N 04:01:58 32° NNW 04:01:58 32° NNW visible
03 Dec 11.5 05:45:09 10° NNW 05:48:26 14° NW 05:48:26 14° NW visible
04 Dec 12.4 01:18:35 10° NE 01:19:37 13° NE 01:19:37 13° NE visible
04 Dec 11.2 03:02:42 10° NNE 03:06:06 31° NNE 03:06:06 31° NNE visible
04 Dec 11.1 04:48:37 10° N 04:52:34 24° NNW 04:52:34 24° NNW visible
05 Dec 11.8 02:07:44 10° NNE 02:10:13 22° NE 02:10:13 22° NE visible
05 Dec 11.0 03:52:53 10° N 03:56:42 31° N 03:56:42 31° N visible
05 Dec 11.5 05:39:46 10° NNW 05:43:09 15° NW 05:43:09 15° NW visible
06 Dec 12.4 01:13:33 10° NE 01:14:21 12° NE 01:14:21 12° NE visible
06 Dec 11.3 02:57:33 10° NNE 03:00:49 30° NNE 03:00:49 30° NNE visible
06 Dec 11.2 04:43:23 10° N 04:47:18 24° NNW 04:47:18 24° NNW visible
07 Dec 11.9 02:02:38 10° NNE 02:04:58 21° NE 02:04:58 21° NE visible
07 Dec 11.1 03:47:43 10° N 03:51:26 31° N 03:51:26 31° N visible
07 Dec 11.5 05:34:26 10° NNW 05:37:54 15° NW 05:37:54 15° NW visible
08 Dec 12.5 01:08:33 10° NE 01:09:05 12° NE 01:09:05 12° NE visible
08 Dec 11.4 02:52:25 10° NNE 02:55:34 28° NNE 02:55:34 28° NNE visible
08 Dec 11.2 04:38:11 10° N 04:42:02 25° NNW 04:42:02 25° NNW visible
